| time (UTC) | temp F | wind direction | speed MPH | gust MPH | rain 1hr in | rain 24hr in | rain mn in | humidity % | barometer mb |
| 20260509161926 | 77 | 280 | 0.0 | 0.0 | 0.05 | 0.05 | 0.05 | 94 | 1014.5 |
| 20260509161426 | 77 | 278 | 0.0 | 0.0 | 0.00 | 0.00 | 0.00 | 94 | 1014.5 |
| 20260509160918 | 77 | 279 | 0.0 | 0.0 | 0.00 | 0.00 | 0.00 | 95 | 1014.4 |
| 20260509160406 | 77 | 279 | 0.0 | 0.0 | 0.00 | 0.00 | 0.00 | 96 | 1014.5 |
| 20260509155620 | 76 | 172 | 0.0 | 0.0 | 0.00 | 0.00 | 0.00 | 96 | 1014.5 |
| 20260509155108 | 76 | 269 | 0.0 | 0.0 | 0.00 | 0.00 | 0.00 | 96 | 1014.7 |
| 20260509154558 | 76 | 266 | 0.0 | 0.0 | 0.00 | 0.00 | 0.00 | 97 | 1014.8 |
| 20260509154050 | 76 | 230 | 0.0 | 0.0 | 0.00 | 0.00 | 0.00 | 97 | 1014.8 |
| 20260509153530 | 76 | 230 | 0.0 | 0.0 | 0.00 | 0.00 | 0.00 | 98 | 1014.9 |
| 20260509153027 | 76 | 222 | 0.0 | 1.0 | 0.00 | 0.00 | 0.00 | 98 | 1014.8 |
| 20260509152514 | 75 | 221 | 0.0 | 1.0 | 0.00 | 0.00 | 0.00 | 98 | 1014.8 |
| 20260509152011 | 75 | 255 | 0.0 | 0.0 | 0.00 | 0.00 | 0.00 | 98 | 1014.8 |
| 20260509151508 | 75 | 177 | 0.0 | 0.0 | 0.00 | 0.00 | 0.00 | 99 | 1014.7 |
| 20260509150957 | 75 | 177 | 0.0 | 0.0 | 0.00 | 0.00 | 0.00 | 99 | 1014.6 |
| 20260509150452 | 75 | 178 | 0.0 | 1.0 | 0.00 | 0.00 | 0.00 | 99 | 1014.4 |
| 20260509145940 | 74 | 175 | 0.0 | 1.0 | 0.00 | 0.00 | 0.00 | 98 | 1014.3 |
| 20260509145418 | 74 | 175 | 0.0 | 0.0 | 0.00 | 0.00 | 0.00 | 98 | 1014.1 |
| 20260509144915 | 74 | 173 | 0.0 | 0.0 | 0.00 | 0.00 | 0.00 | 98 | 1013.9 |
| 20260509144415 | 74 | 173 | 0.0 | 0.0 | 0.00 | 0.00 | 0.00 | 99 | 1013.9 |
| 20260509144132 | 74 | 173 | 0.0 | 0.0 | 0.00 | 0.00 | 0.00 | 99 | 1014.0 |
| 20260509143351 | 74 | 173 | 0.0 | 0.0 | 0.00 | 0.00 | 0.00 | 98 | 1013.8 |
| 20260509142848 | 74 | 175 | 0.0 | 0.0 | 0.00 | 0.00 | 0.00 | 98 | 1014.1 |
| 20260509142826 | 74 | 175 | 0.0 | 0.0 | 0.00 | 0.00 | 0.00 | 99 | 1014.1 |
| 20260509142428 | 74 | 175 | 0.0 | 0.0 | 0.00 | 0.00 | 0.00 | 99 | 1014.0 |
| 20260509141317 | 74 | 175 | 0.0 | 0.0 | 0.00 | 0.00 | 0.00 | 99 | 1014.0 |
| 20260509140815 | 74 | 175 | 0.0 | 0.0 | 0.00 | 0.00 | 0.00 | 99 | 1014.1 |
| 20260509140316 | 74 | 175 | 0.0 | 0.0 | 0.00 | 0.00 | 0.00 | 99 | 1014.0 |
| 20260509140047 | 74 | 175 | 0.0 | 0.0 | 0.00 | 0.00 | 0.00 | 99 | 1014.0 |
| 20260509135314 | 74 | 180 | 0.0 | 1.0 | 0.00 | 0.00 | 0.00 | 99 | 1013.9 |
| 20260509134816 | 74 | 174 | 0.0 | 1.0 | 0.00 | 0.00 | 0.00 | 99 | 1013.8 |
| 20260509134316 | 74 | 173 | 0.0 | 1.0 | 0.00 | 0.00 | 0.00 | 99 | 1013.5 |
| 20260509133813 | 74 | 170 | 0.0 | 1.0 | 0.00 | 0.00 | 0.00 | 99 | 1013.5 |
| 20260509133318 | 73 | 169 | 0.0 | 1.0 | 0.00 | 0.00 | 0.00 | 99 | 1013.4 |
| 20260509133313 | 73 | 169 | 0.0 | 1.0 | 0.00 | 0.00 | 0.00 | 99 | 1013.6 |
| 20260509132935 | 73 | 169 | 0.0 | 1.0 | 0.00 | 0.00 | 0.00 | 99 | 1013.3 |
| 20260509131810 | 73 | 171 | 0.0 | 1.0 | 0.00 | 0.00 | 0.00 | 99 | 1013.0 |
| 20260509131309 | 73 | 172 | 0.0 | 1.0 | 0.00 | 0.00 | 0.00 | 99 | 1012.9 |
| 20260509130811 | 73 | 175 | 0.0 | 1.0 | 0.00 | 0.00 | 0.00 | 99 | 1013.0 |
| 20260509130309 | 73 | 171 | 0.0 | 1.0 | 0.00 | 0.00 | 0.00 | 99 | 1013.0 |
| 20260509125811 | 73 | 167 | 0.0 | 1.0 | 0.00 | 0.00 | 0.00 | 99 | 1012.8 |
| 20260509125308 | 73 | 169 | 0.0 | 0.0 | 0.00 | 0.00 | 0.00 | 99 | 1012.8 |
| 20260509124810 | 73 | 170 | 0.0 | 0.0 | 0.00 | 0.00 | 0.00 | 99 | 1013.0 |
| 20260509124307 | 73 | 170 | 0.0 | 0.0 | 0.00 | 0.00 | 0.00 | 99 | 1012.8 |
| 20260509123806 | 73 | 183 | 0.0 | 0.0 | 0.00 | 0.00 | 0.00 | 99 | 1012.8 |
| 20260509123308 | 73 | 183 | 0.0 | 0.0 | 0.00 | 0.00 | 0.00 | 99 | 1012.9 |
| 20260509122807 | 73 | 183 | 0.0 | 0.0 | 0.00 | 0.00 | 0.00 | 99 | 1013.1 |
| 20260509122307 | 73 | 183 | 0.0 | 0.0 | 0.00 | 0.00 | 0.00 | 99 | 1013.3 |
| 20260509121812 | 73 | 183 | 0.0 | 0.0 | 0.00 | 0.00 | 0.00 | 99 | 1013.4 |
| 20260509121807 | 73 | 183 | 0.0 | 0.0 | 0.00 | 0.00 | 0.00 | 99 | 1013.3 |
| 20260509121039 | 73 | 183 | 0.0 | 0.0 | 0.00 | 0.01 | 0.00 | 99 | 1014.0 |
| 20260509120311 | 73 | 183 | 0.0 | 0.0 | 0.00 | 0.09 | 0.00 | 99 | 1014.2 |
| 20260509120307 | 73 | 183 | 0.0 | 0.0 | 0.00 | 0.07 | 0.00 | 99 | 1014.1 |
| 20260509115308 | 73 | 183 | 0.0 | 0.0 | 0.00 | 0.10 | 0.00 | 99 | 1014.3 |
| 20260509114806 | 73 | 183 | 0.0 | 0.0 | 0.00 | 0.11 | 0.00 | 99 | 1014.3 |
| 20260509114306 | 73 | 183 | 0.0 | 0.0 | 0.00 | 0.11 | 0.00 | 99 | 1014.0 |
| 20260509113806 | 73 | 183 | 0.0 | 0.0 | 0.00 | 0.11 | 0.00 | 99 | 1013.9 |
| 20260509113535 | 73 | 183 | 0.0 | 0.0 | 0.00 | 0.11 | 0.00 | 99 | 1014.0 |
| 20260509112804 | 73 | 183 | 0.0 | 0.0 | 0.00 | 0.11 | 0.00 | 99 | 1013.9 |
| 20260509112306 | 73 | 183 | 0.0 | 0.0 | 0.00 | 0.11 | 0.00 | 99 | 1013.8 |
| 20260509112030 | 72 | 183 | 0.0 | 0.0 | 0.00 | 0.11 | 0.00 | 99 | 1013.6 |
| 20260509111258 | 72 | 183 | 0.0 | 0.0 | 0.00 | 0.12 | 0.00 | 99 | 1013.4 |
| 20260509110800 | 73 | 183 | 0.0 | 0.0 | 0.00 | 0.12 | 0.00 | 99 | 1013.4 |
| 20260509110304 | 72 | 183 | 0.0 | 0.0 | 0.00 | 0.13 | 0.00 | 98 | 1013.3 |
| 20260509110259 | 73 | 183 | 0.0 | 0.0 | 0.00 | 0.13 | 0.00 | 98 | 1013.8 |
| 20260509105301 | 72 | 183 | 0.0 | 0.0 | 0.00 | 0.13 | 0.00 | 98 | 1013.2 |
| 20260509105257 | 72 | 183 | 0.0 | 0.0 | 0.00 | 0.13 | 0.00 | 98 | 1013.3 |
| 20260509104254 | 73 | 183 | 0.0 | 0.0 | 0.00 | 0.14 | 0.00 | 98 | 1013.2 |
| 20260509104026 | 73 | 183 | 0.0 | 0.0 | 0.00 | 0.14 | 0.00 | 98 | 1013.4 |
| 20260509103252 | 73 | 184 | 0.0 | 0.0 | 0.00 | 0.14 | 0.00 | 98 | 1013.5 |
| 20260509102752 | 73 | 183 | 0.0 | 0.0 | 0.00 | 0.14 | 0.00 | 98 | 1013.4 |
| 20260509102253 | 73 | 183 | 0.0 | 0.0 | 0.00 | 0.14 | 0.00 | 98 | 1013.6 |
| 20260509101751 | 72 | 184 | 0.0 | 0.0 | 0.00 | 0.14 | 0.00 | 98 | 1013.5 |
| 20260509101257 | 73 | 183 | 0.0 | 0.0 | 0.00 | 0.14 | 0.00 | 98 | 1013.6 |
| 20260509101252 | 72 | 183 | 0.0 | 0.0 | 0.00 | 0.14 | 0.00 | 98 | 1013.4 |
| 20260509100248 | 73 | 184 | 0.0 | 0.0 | 0.00 | 0.14 | 0.00 | 98 | 1013.6 |
| 20260509095750 | 73 | 184 | 0.0 | 0.0 | 0.00 | 0.14 | 0.00 | 98 | 1013.6 |
| 20260509095249 | 73 | 184 | 0.0 | 0.0 | 0.00 | 0.14 | 0.00 | 98 | 1013.6 |
| 20260509094748 | 73 | 184 | 0.0 | 0.0 | 0.00 | 0.14 | 0.00 | 98 | 1013.5 |
| 20260509094250 | 73 | 184 | 0.0 | 0.0 | 0.00 | 0.14 | 0.00 | 98 | 1013.6 |
| 20260509093750 | 73 | 184 | 0.0 | 0.0 | 0.00 | 0.14 | 0.00 | 98 | 1013.8 |
| 20260509093254 | 73 | 184 | 0.0 | 0.0 | 0.00 | 0.14 | 0.00 | 98 | 1013.4 |
| 20260509093249 | 73 | 184 | 0.0 | 0.0 | 0.00 | 0.14 | 0.00 | 98 | 1013.8 |
| 20260509092520 | 73 | 184 | 0.0 | 0.0 | 0.00 | 0.14 | 0.00 | 98 | 1013.3 |
| 20260509091748 | 73 | 184 | 0.0 | 0.0 | 0.00 | 0.14 | 0.00 | 98 | 1013.4 |
| 20260509091248 | 73 | 184 | 0.0 | 0.0 | 0.00 | 0.14 | 0.00 | 98 | 1013.6 |
| 20260509090750 | 73 | 184 | 0.0 | 0.0 | 0.00 | 0.14 | 0.00 | 98 | 1013.5 |
| 20260509090249 | 72 | 184 | 0.0 | 0.0 | 0.00 | 0.14 | 0.00 | 98 | 1013.5 |
| 20260509085748 | 73 | 184 | 0.0 | 0.0 | 0.00 | 0.14 | 0.00 | 98 | 1013.5 |
| 20260509085249 | 73 | 184 | 0.0 | 0.0 | 0.00 | 0.14 | 0.00 | 98 | 1013.5 |
| 20260509084748 | 73 | 184 | 0.0 | 0.0 | 0.00 | 0.14 | 0.00 | 98 | 1013.4 |
| 20260509084250 | 73 | 184 | 0.0 | 0.0 | 0.00 | 0.14 | 0.00 | 97 | 1013.6 |
| 20260509083749 | 73 | 184 | 0.0 | 0.0 | 0.00 | 0.14 | 0.00 | 97 | 1013.8 |
| 20260509083250 | 73 | 184 | 0.0 | 0.0 | 0.00 | 0.14 | 0.00 | 97 | 1014.0 |
| 20260509082748 | 73 | 184 | 0.0 | 0.0 | 0.00 | 0.14 | 0.00 | 97 | 1014.0 |
| 20260509082250 | 73 | 184 | 0.0 | 0.0 | 0.00 | 0.14 | 0.00 | 97 | 1014.1 |
| 20260509082020 | 73 | 184 | 0.0 | 0.0 | 0.00 | 0.14 | 0.00 | 97 | 1013.9 |
| 20260509081248 | 73 | 184 | 0.0 | 0.0 | 0.00 | 0.14 | 0.00 | 97 | 1014.1 |
| 20260509080750 | 73 | 184 | 0.0 | 0.0 | 0.00 | 0.14 | 0.00 | 97 | 1014.0 |
| 20260509080246 | 73 | 184 | 0.0 | 0.0 | 0.00 | 0.14 | 0.00 | 97 | 1013.9 |
| 20260509075744 | 73 | 184 | 0.0 | 0.0 | 0.00 | 0.14 | 0.00 | 97 | 1014.0 |
| 20260509075245 | 73 | 184 | 0.0 | 0.0 | 0.00 | 0.14 | 0.00 | 97 | 1014.0 |
| 20260509074742 | 73 | 184 | 0.0 | 0.0 | 0.00 | 0.14 | 0.00 | 97 | 1014.1 |
| 20260509074240 | 73 | 184 | 0.0 | 0.0 | 0.00 | 0.14 | 0.00 | 97 | 1014.4 |
| 20260509073740 | 73 | 184 | 0.0 | 0.0 | 0.00 | 0.14 | 0.00 | 97 | 1014.4 |
| 20260509073237 | 73 | 182 | 0.0 | 0.0 | 0.00 | 0.14 | 0.00 | 97 | 1014.3 |
| 20260509072738 | 73 | 182 | 0.0 | 0.0 | 0.00 | 0.14 | 0.00 | 97 | 1014.2 |
| 20260509072237 | 73 | 181 | 0.0 | 0.0 | 0.00 | 0.14 | 0.00 | 97 | 1014.2 |
| 20260509071736 | 73 | 165 | 0.0 | 0.0 | 0.00 | 0.14 | 0.00 | 96 | 1014.1 |
| 20260509071238 | 73 | 183 | 0.0 | 1.0 | 0.00 | 0.14 | 0.00 | 96 | 1014.0 |
| 20260509070736 | 73 | 178 | 0.0 | 1.0 | 0.00 | 0.14 | 0.00 | 96 | 1014.0 |
| 20260509070237 | 73 | 194 | 0.0 | 1.0 | 0.00 | 0.14 | 0.00 | 96 | 1013.9 |
| 20260509065726 | 73 | 183 | 0.0 | 0.0 | 0.00 | 0.14 | 0.00 | 96 | 1013.6 |
| 20260509065226 | 73 | 169 | 0.0 | 0.0 | 0.00 | 0.14 | 0.00 | 96 | 1013.6 |
| 20260509064728 | 73 | 165 | 0.0 | 0.0 | 0.00 | 0.14 | 0.00 | 96 | 1013.5 |
| 20260509064227 | 73 | 155 | 0.0 | 0.0 | 0.00 | 0.14 | 0.00 | 96 | 1013.5 |
| 20260509063727 | 73 | 153 | 0.0 | 0.0 | 0.00 | 0.14 | 0.00 | 96 | 1013.5 |
| 20260509063228 | 73 | 153 | 0.0 | 0.0 | 0.00 | 0.14 | 0.00 | 96 | 1013.5 |
| 20260509062732 | 73 | 153 | 0.0 | 0.0 | 0.00 | 0.14 | 0.00 | 96 | 1013.6 |
| 20260509062728 | 73 | 153 | 0.0 | 0.0 | 0.00 | 0.14 | 0.00 | 96 | 1013.6 |
| 20260509061726 | 73 | 153 | 0.0 | 0.0 | 0.00 | 0.14 | 0.00 | 96 | 1013.6 |
| 20260509061225 | 73 | 153 | 0.0 | 0.0 | 0.00 | 0.14 | 0.00 | 96 | 1013.8 |
| 20260509060722 | 73 | 153 | 0.0 | 0.0 | 0.00 | 0.14 | 0.00 | 96 | 1013.8 |
| 20260509060222 | 73 | 153 | 0.0 | 0.0 | 0.00 | 0.14 | 0.00 | 96 | 1013.9 |
| 20260509055722 | 73 | 153 | 0.0 | 0.0 | 0.00 | 0.14 | 0.00 | 96 | 1013.6 |
| 20260509055223 | 73 | 152 | 0.0 | 0.0 | 0.00 | 0.14 | 0.00 | 95 | 1013.8 |
| 20260509054722 | 73 | 152 | 0.0 | 0.0 | 0.00 | 0.14 | 0.00 | 95 | 1013.9 |
| 20260509054222 | 73 | 152 | 0.0 | 0.0 | 0.00 | 0.14 | 0.00 | 95 | 1014.0 |
| 20260509053722 | 73 | 152 | 0.0 | 0.0 | 0.00 | 0.14 | 0.00 | 95 | 1013.8 |
| 20260509053222 | 73 | 153 | 0.0 | 0.0 | 0.00 | 0.14 | 0.00 | 95 | 1013.6 |
| 20260509052723 | 73 | 154 | 0.0 | 0.0 | 0.00 | 0.14 | 0.00 | 95 | 1013.5 |
| 20260509052221 | 73 | 154 | 0.0 | 0.0 | 0.00 | 0.14 | 0.00 | 95 | 1013.6 |
| 20260509051717 | 73 | 154 | 0.0 | 0.0 | 0.00 | 0.14 | 0.00 | 95 | 1013.6 |
| 20260509051217 | 73 | 154 | 0.0 | 0.0 | 0.00 | 0.14 | 0.00 | 95 | 1013.6 |
| 20260509050949 | 72 | 154 | 0.0 | 0.0 | 0.00 | 0.14 | 0.00 | 95 | 1013.5 |
| 20260509050448 | 72 | 154 | 0.0 | 0.0 | 0.00 | 0.14 | 0.00 | 95 | 1013.6 |
| 20260509045716 | 72 | 154 | 0.0 | 0.0 | 0.00 | 0.14 | 0.14 | 95 | 1013.5 |
| 20260509045222 | 72 | 154 | 0.0 | 0.0 | 0.00 | 0.14 | 0.14 | 95 | 1013.5 |
| 20260509045216 | 72 | 154 | 0.0 | 0.0 | 0.00 | 0.14 | 0.14 | 95 | 1013.5 |
| 20260509044450 | 72 | 154 | 0.0 | 0.0 | 0.00 | 0.14 | 0.14 | 95 | 1013.4 |
| 20260509043716 | 72 | 154 | 0.0 | 0.0 | 0.00 | 0.14 | 0.14 | 95 | 1013.4 |
| 20260509043449 | 72 | 154 | 0.0 | 0.0 | 0.00 | 0.14 | 0.14 | 95 | 1013.3 |
| 20260509042716 | 72 | 154 | 0.0 | 1.0 | 0.00 | 0.14 | 0.14 | 95 | 1013.2 |
| 20260509042216 | 72 | 154 | 0.0 | 1.0 | 0.00 | 0.14 | 0.14 | 94 | 1013.3 |
| 20260509041717 | 72 | 136 | 0.0 | 1.0 | 0.00 | 0.14 | 0.14 | 94 | 1013.2 |
| 20260509041218 | 72 | 140 | 0.0 | 1.0 | 0.00 | 0.14 | 0.14 | 94 | 1013.2 |
| 20260509040717 | 72 | 148 | 0.0 | 0.0 | 0.00 | 0.14 | 0.14 | 94 | 1013.1 |
| 20260509040216 | 72 | 140 | 0.0 | 0.0 | 0.00 | 0.14 | 0.14 | 94 | 1013.1 |
| 20260509035716 | 72 | 153 | 0.0 | 0.0 | 0.00 | 0.14 | 0.14 | 94 | 1013.2 |
| 20260509035215 | 72 | 154 | 0.0 | 0.0 | 0.00 | 0.14 | 0.14 | 94 | 1013.3 |
| 20260509034716 | 72 | 155 | 0.0 | 0.0 | 0.00 | 0.14 | 0.14 | 94 | 1013.4 |
| 20260509034213 | 72 | 155 | 0.0 | 0.0 | 0.00 | 0.14 | 0.14 | 94 | 1013.3 |
| 20260509033710 | 72 | 155 | 0.0 | 0.0 | 0.00 | 0.14 | 0.14 | 94 | 1013.2 |
| 20260509033210 | 72 | 155 | 0.0 | 0.0 | 0.00 | 0.14 | 0.14 | 94 | 1013.3 |
| 20260509032711 | 72 | 155 | 0.0 | 0.0 | 0.00 | 0.14 | 0.14 | 93 | 1013.3 |
| 20260509032210 | 72 | 155 | 0.0 | 0.0 | 0.00 | 0.14 | 0.14 | 93 | 1013.2 |
| 20260509031710 | 72 | 154 | 0.0 | 0.0 | 0.00 | 0.14 | 0.14 | 93 | 1013.1 |
| 20260509031210 | 72 | 154 | 0.0 | 0.0 | 0.00 | 0.14 | 0.14 | 93 | 1013.2 |
| 20260509030711 | 72 | 142 | 0.0 | 1.0 | 0.00 | 0.14 | 0.14 | 93 | 1013.1 |
| 20260509030442 | 72 | 145 | 0.0 | 1.0 | 0.00 | 0.14 | 0.14 | 92 | 1013.0 |
| 20260509025712 | 73 | 169 | 0.0 | 0.0 | 0.00 | 0.14 | 0.14 | 92 | 1012.9 |
| 20260509025212 | 73 | 170 | 0.0 | 0.0 | 0.00 | 0.14 | 0.14 | 92 | 1012.6 |
| 20260509024708 | 73 | 163 | 0.0 | 0.0 | 0.00 | 0.14 | 0.14 | 92 | 1012.7 |
| 20260509024209 | 73 | 151 | 0.0 | 0.0 | 0.00 | 0.14 | 0.14 | 93 | 1012.5 |
| 20260509023938 | 73 | 150 | 0.0 | 0.0 | 0.00 | 0.14 | 0.14 | 93 | 1012.5 |
| 20260509023209 | 73 | 128 | 0.0 | 0.0 | 0.00 | 0.14 | 0.14 | 93 | 1012.6 |
| 20260509022709 | 73 | 150 | 0.0 | 1.0 | 0.00 | 0.14 | 0.14 | 93 | 1012.7 |
| 20260509022208 | 73 | 142 | 0.0 | 1.0 | 0.00 | 0.14 | 0.14 | 93 | 1012.7 |
| 20260509021708 | 73 | 137 | 0.0 | 0.0 | 0.00 | 0.14 | 0.14 | 93 | 1012.5 |
| 20260509021441 | 73 | 146 | 0.0 | 0.0 | 0.00 | 0.14 | 0.14 | 93 | 1012.5 |
| 20260509020709 | 73 | 146 | 0.0 | 0.0 | 0.00 | 0.14 | 0.14 | 93 | 1012.4 |
| 20260509020209 | 73 | 146 | 0.0 | 0.0 | 0.00 | 0.14 | 0.14 | 93 | 1012.3 |
| 20260509015706 | 73 | 144 | 0.0 | 0.0 | 0.00 | 0.14 | 0.14 | 93 | 1012.3 |
| 20260509015205 | 73 | 139 | 0.0 | 0.0 | 0.00 | 0.14 | 0.14 | 92 | 1012.3 |
| 20260509014706 | 73 | 138 | 0.0 | 0.0 | 0.00 | 0.14 | 0.14 | 92 | 1012.2 |
| 20260509014436 | 74 | 138 | 0.0 | 0.0 | 0.00 | 0.14 | 0.14 | 92 | 1012.1 |
| 20260509013938 | 74 | 137 | 0.0 | 0.0 | 0.00 | 0.14 | 0.14 | 92 | 1012.1 |
| 20260509013207 | 74 | 135 | 0.0 | 0.0 | 0.00 | 0.14 | 0.14 | 91 | 1012.0 |
| 20260509012707 | 74 | 135 | 0.0 | 0.0 | 0.00 | 0.14 | 0.14 | 90 | 1012.0 |
| 20260509012206 | 74 | 135 | 0.0 | 0.0 | 0.00 | 0.14 | 0.14 | 90 | 1012.0 |
| 20260509011707 | 74 | 135 | 0.0 | 0.0 | 0.00 | 0.14 | 0.14 | 90 | 1011.9 |
| 20260509011205 | 74 | 135 | 0.0 | 0.0 | 0.00 | 0.14 | 0.14 | 90 | 1012.1 |
| 20260509010704 | 75 | 135 | 0.0 | 0.0 | 0.00 | 0.14 | 0.14 | 90 | 1012.0 |
| 20260509010204 | 75 | 135 | 0.0 | 0.0 | 0.00 | 0.14 | 0.14 | 89 | 1011.8 |
| 20260509005705 | 75 | 135 | 0.0 | 0.0 | 0.00 | 0.14 | 0.14 | 89 | 1011.9 |
| 20260509005205 | 75 | 133 | 0.0 | 0.0 | 0.00 | 0.14 | 0.14 | 89 | 1011.9 |
| 20260509004705 | 76 | 130 | 0.0 | 0.0 | 0.00 | 0.14 | 0.14 | 89 | 1012.0 |
| 20260509004203 | 76 | 86 | 0.0 | 0.0 | 0.00 | 0.14 | 0.14 | 89 | 1012.0 |
| 20260509003934 | 76 | 86 | 0.0 | 0.0 | 0.00 | 0.14 | 0.14 | 89 | 1012.1 |
| 20260509003204 | 76 | 86 | 0.0 | 0.0 | 0.00 | 0.14 | 0.14 | 88 | 1012.1 |
| 20260509002936 | 76 | 86 | 0.0 | 0.0 | 0.00 | 0.14 | 0.14 | 88 | 1012.0 |
| 20260509002825 | 76 | 89 | 0.0 | 0.0 | 0.00 | 0.14 | 0.14 | 87 | 1012.1 |
| 20260509001701 | 76 | 89 | 0.0 | 0.0 | 0.00 | 0.14 | 0.14 | 87 | 1012.1 |
| 20260509001201 | 77 | 90 | 0.0 | 0.0 | 0.00 | 0.14 | 0.14 | 87 | 1012.1 |
| 20260509000931 | 77 | 105 | 0.0 | 0.0 | 0.00 | 0.14 | 0.14 | 86 | 1012.1 |
| 20260509000433 | 77 | 136 | 0.0 | 0.0 | 0.00 | 0.14 | 0.14 | 86 | 1011.9 |
| 20260508235700 | 77 | 107 | 0.0 | 0.0 | 0.00 | 0.14 | 0.14 | 86 | 1011.9 |
| 20260508235200 | 77 | 86 | 0.0 | 0.0 | 0.00 | 0.14 | 0.14 | 86 | 1012.0 |
| 20260508234701 | 77 | 88 | 0.0 | 0.0 | 0.00 | 0.14 | 0.14 | 87 | 1012.0 |
| 20260508234159 | 77 | 86 | 0.0 | 0.0 | 0.00 | 0.14 | 0.14 | 86 | 1012.0 |
| 20260508233659 | 78 | 111 | 0.0 | 0.0 | 0.00 | 0.14 | 0.14 | 86 | 1012.0 |
| 20260508233159 | 78 | 111 | 0.0 | 0.0 | 0.00 | 0.14 | 0.14 | 87 | 1012.1 |
| 20260508232655 | 77 | 100 | 0.0 | 0.0 | 0.00 | 0.14 | 0.14 | 86 | 1012.4 |
| 20260508232426 | 77 | 100 | 0.0 | 1.0 | 0.00 | 0.14 | 0.14 | 86 | 1012.6 |
| 20260508231656 | 78 | 100 | 0.0 | 1.0 | 0.00 | 0.14 | 0.14 | 86 | 1012.8 |
| 20260508231158 | 78 | 102 | 0.0 | 0.0 | 0.00 | 0.14 | 0.14 | 85 | 1012.9 |
| 20260508230928 | 78 | 103 | 0.0 | 0.0 | 0.00 | 0.14 | 0.14 | 85 | 1012.8 |
| 20260508230155 | 78 | 103 | 0.0 | 0.0 | 0.00 | 0.14 | 0.14 | 85 | 1012.8 |
| 20260508225655 | 78 | 108 | 0.0 | 0.0 | 0.00 | 0.14 | 0.14 | 84 | 1012.8 |
| 20260508225154 | 78 | 113 | 0.0 | 0.0 | 0.00 | 0.14 | 0.14 | 84 | 1012.7 |
| 20260508224659 | 79 | 127 | 0.0 | 0.0 | 0.00 | 0.14 | 0.14 | 83 | 1012.8 |
| 20260508224655 | 78 | 117 | 0.0 | 0.0 | 0.00 | 0.14 | 0.14 | 83 | 1012.9 |
| 20260508223649 | 79 | 123 | 0.0 | 0.0 | 0.00 | 0.14 | 0.14 | 83 | 1012.7 |
| 20260508223151 | 79 | 118 | 0.0 | 0.0 | 0.00 | 0.14 | 0.14 | 83 | 1012.7 |
| 20260508222648 | 79 | 101 | 0.0 | 0.0 | 0.00 | 0.14 | 0.14 | 83 | 1012.6 |
| 20260508222147 | 79 | 102 | 0.0 | 0.0 | 0.00 | 0.14 | 0.14 | 83 | 1012.6 |
| 20260508221647 | 79 | 95 | 0.0 | 0.0 | 0.00 | 0.14 | 0.14 | 84 | 1012.7 |
| 20260508221146 | 78 | 140 | 0.0 | 0.0 | 0.00 | 0.14 | 0.14 | 83 | 1012.8 |
| 20260508220647 | 79 | 120 | 0.0 | 0.0 | 0.00 | 0.14 | 0.14 | 83 | 1012.9 |
| 20260508220148 | 79 | 128 | 0.0 | 0.0 | 0.00 | 0.14 | 0.14 | 82 | 1012.8 |
| 20260508215646 | 79 | 100 | 0.0 | 0.0 | 0.00 | 0.14 | 0.14 | 82 | 1012.8 |
| 20260508215418 | 80 | 100 | 0.0 | 0.0 | 0.00 | 0.14 | 0.14 | 82 | 1012.8 |
| 20260508214647 | 80 | 94 | 0.0 | 0.0 | 0.00 | 0.14 | 0.14 | 83 | 1012.6 |
| 20260508214147 | 80 | 98 | 0.0 | 0.0 | 0.00 | 0.14 | 0.14 | 83 | 1012.6 |
| 20260508213645 | 79 | 98 | 0.0 | 0.0 | 0.00 | 0.14 | 0.14 | 83 | 1012.7 |
| 20260508213419 | 79 | 116 | 0.0 | 0.0 | 0.00 | 0.14 | 0.14 | 82 | 1012.7 |
| 20260508212649 | 80 | 55 | 0.0 | 0.0 | 0.00 | 0.14 | 0.14 | 82 | 1013.0 |
| 20260508212644 | 79 | 138 | 0.0 | 0.0 | 0.00 | 0.14 | 0.14 | 82 | 1012.9 |
| 20260508211642 | 80 | 59 | 0.0 | 0.0 | 0.00 | 0.14 | 0.14 | 82 | 1013.0 |
| 20260508211143 | 80 | 59 | 0.0 | 0.0 | 0.00 | 0.14 | 0.14 | 82 | 1013.1 |
| 20260508210912 | 80 | 59 | 0.0 | 0.0 | 0.00 | 0.14 | 0.14 | 82 | 1013.1 |
| 20260508210143 | 79 | 63 | 0.0 | 0.0 | 0.00 | 0.14 | 0.14 | 83 | 1013.1 |
| 20260508205914 | 79 | 48 | 0.0 | 0.0 | 0.00 | 0.14 | 0.14 | 83 | 1013.1 |
| 20260508205142 | 79 | 51 | 0.0 | 0.0 | 0.00 | 0.14 | 0.14 | 83 | 1013.2 |
| 20260508204642 | 79 | 52 | 0.0 | 0.0 | 0.00 | 0.14 | 0.14 | 81 | 1013.4 |
| 20260508204141 | 79 | 27 | 0.0 | 0.0 | 0.00 | 0.14 | 0.14 | 83 | 1013.5 |
| 20260508203913 | 79 | 22 | 0.0 | 0.0 | 0.00 | 0.14 | 0.14 | 84 | 1013.5 |
| 20260508203142 | 79 | 105 | 0.0 | 0.0 | 0.00 | 0.14 | 0.14 | 85 | 1013.5 |
| 20260508202649 | 79 | 117 | 0.0 | 0.0 | 0.00 | 0.14 | 0.14 | 83 | 1013.5 |
| 20260508202643 | 79 | 120 | 0.0 | 0.0 | 0.00 | 0.14 | 0.14 | 83 | 1013.5 |
| 20260508201643 | 79 | 78 | 0.0 | 0.0 | 0.00 | 0.14 | 0.14 | 84 | 1013.6 |
| 20260508201142 | 79 | 91 | 0.0 | 0.0 | 0.00 | 0.14 | 0.14 | 84 | 1013.9 |
| 20260508200643 | 79 | 93 | 0.0 | 0.0 | 0.00 | 0.14 | 0.14 | 82 | 1013.9 |
| 20260508200141 | 79 | 86 | 0.0 | 0.0 | 0.00 | 0.14 | 0.14 | 83 | 1013.9 |
| 20260508195641 | 79 | 59 | 0.0 | 0.0 | 0.00 | 0.14 | 0.14 | 84 | 1013.9 |
| 20260508195141 | 78 | 44 | 0.0 | 1.0 | 0.00 | 0.14 | 0.14 | 85 | 1013.9 |
| 20260508194643 | 78 | 107 | 0.0 | 1.0 | 0.00 | 0.14 | 0.14 | 85 | 1014.2 |
| 20260508194142 | 77 | 35 | 0.0 | 0.0 | 0.00 | 0.14 | 0.14 | 85 | 1014.3 |
| 20260508193914 | 77 | 40 | 0.0 | 0.0 | 0.00 | 0.14 | 0.14 | 85 | 1014.4 |
| 20260508193141 | 76 | 46 | 0.0 | 0.0 | 0.00 | 0.14 | 0.14 | 87 | 1014.3 |
| 20260508192643 | 76 | 46 | 0.0 | 0.0 | 0.00 | 0.14 | 0.14 | 85 | 1014.5 |
| 20260508192142 | 76 | 47 | 0.0 | 0.0 | 0.00 | 0.14 | 0.14 | 86 | 1014.6 |
| 20260508191643 | 76 | 59 | 0.0 | 0.0 | 0.00 | 0.14 | 0.14 | 85 | 1014.6 |
| 20260508191412 | 76 | 59 | 0.0 | 0.0 | 0.00 | 0.14 | 0.14 | 86 | 1014.7 |
| 20260508190641 | 76 | 60 | 0.0 | 0.0 | 0.00 | 0.14 | 0.14 | 86 | 1014.9 |
| 20260508190413 | 76 | 60 | 0.0 | 0.0 | 0.00 | 0.14 | 0.14 | 86 | 1015.0 |
| 20260508185640 | 75 | 60 | 0.0 | 0.0 | 0.00 | 0.14 | 0.14 | 86 | 1015.0 |
| 20260508185139 | 75 | 59 | 0.0 | 0.0 | 0.00 | 0.14 | 0.14 | 88 | 1015.0 |
| 20260508184635 | 75 | 45 | 0.0 | 0.0 | 0.00 | 0.14 | 0.14 | 86 | 1015.0 |
| 20260508184134 | 75 | 44 | 0.0 | 0.0 | 0.00 | 0.14 | 0.14 | 88 | 1014.9 |
| 20260508183904 | 74 | 46 | 0.0 | 0.0 | 0.00 | 0.14 | 0.14 | 88 | 1015.1 |
| 20260508183134 | 74 | 48 | 0.0 | 0.0 | 0.00 | 0.14 | 0.14 | 89 | 1015.1 |
| 20260508182633 | 74 | 46 | 0.0 | 0.0 | 0.00 | 0.14 | 0.14 | 89 | 1015.0 |
| 20260508182134 | 74 | 45 | 0.0 | 0.0 | 0.00 | 0.14 | 0.14 | 91 | 1015.2 |
| 20260508181633 | 73 | 38 | 0.0 | 0.0 | 0.00 | 0.14 | 0.14 | 90 | 1015.3 |
| 20260508181134 | 73 | 36 | 0.0 | 0.0 | 0.00 | 0.14 | 0.14 | 90 | 1015.2 |
| 20260508180630 | 73 | 37 | 0.0 | 0.0 | 0.00 | 0.14 | 0.14 | 91 | 1015.2 |
| 20260508180129 | 72 | 36 | 0.0 | 0.0 | 0.00 | 0.14 | 0.14 | 91 | 1015.4 |
| 20260508175629 | 72 | 28 | 0.0 | 0.0 | 0.00 | 0.14 | 0.14 | 91 | 1015.4 |
| 20260508175128 | 72 | 27 | 0.0 | 0.0 | 0.00 | 0.14 | 0.14 | 92 | 1015.4 |
| 20260508174629 | 72 | 22 | 0.0 | 0.0 | 0.00 | 0.14 | 0.14 | 92 | 1015.4 |
| 20260508174128 | 72 | 34 | 0.0 | 0.0 | 0.00 | 0.14 | 0.14 | 94 | 1015.5 |
| 20260508173629 | 71 | 36 | 0.0 | 0.0 | 0.00 | 0.14 | 0.14 | 93 | 1015.5 |
| 20260508173357 | 71 | 30 | 0.0 | 0.0 | 0.00 | 0.14 | 0.14 | 94 | 1015.6 |
| 20260508172625 | 71 | 31 | 0.0 | 0.0 | 0.00 | 0.14 | 0.14 | 94 | 1015.7 |
| 20260508172126 | 71 | 34 | 0.0 | 0.0 | 0.00 | 0.14 | 0.14 | 96 | 1015.7 |
| 20260508171854 | 70 | 35 | 0.0 | 0.0 | 0.00 | 0.14 | 0.14 | 96 | 1015.7 |
| 20260508171124 | 69 | 32 | 0.0 | 0.0 | 0.00 | 0.14 | 0.14 | 96 | 1015.8 |
| 20260508170855 | 69 | 35 | 0.0 | 0.0 | 0.00 | 0.14 | 0.14 | 96 | 1015.8 |
| 20260508170122 | 68 | 39 | 0.0 | 0.0 | 0.00 | 0.14 | 0.14 | 95 | 1015.8 |
| 20260508165623 | 68 | 57 | 0.0 | 0.0 | 0.00 | 0.14 | 0.14 | 96 | 1015.9 |
| 20260508165122 | 68 | 62 | 0.0 | 0.0 | 0.00 | 0.14 | 0.14 | 96 | 1016.0 |
| 20260508164622 | 68 | 62 | 0.0 | 0.0 | 0.00 | 0.14 | 0.14 | 96 | 1016.0 |
| 20260508164122 | 67 | 71 | 0.0 | 0.0 | 0.00 | 0.14 | 0.14 | 96 | 1016.1 |
| 20260508163620 | 67 | 72 | 0.0 | 0.0 | 0.00 | 0.14 | 0.14 | 97 | 1016.2 |
| 20260508163120 | 67 | 72 | 0.0 | 0.0 | 0.00 | 0.14 | 0.14 | 97 | 1016.4 |
| 20260508162619 | 67 | 72 | 0.0 | 0.0 | 0.00 | 0.14 | 0.14 | 97 | 1016.5 |
| 20260508162352 | 67 | 72 | 0.0 | 0.0 | 0.00 | 0.14 | 0.14 | 97 | 1016.5 |